Location: B?lite?ti
(46.2833°N, 22.7333°E)
Time: 04:47:46
(UTC+00:00)

COSMOS 2406 - Pass Details

Date: 24 January 2021
Orbit: 841 x 866 km, 71.0° (Epoch: 26 February)

Event Time Altitude Azimuth Distance (km) Brightness Sun altitude
Rises 18:24:20 0° 327° (NNW) 3,458 6.9 -31.3°
Reaches altitude 10° 18:26:57 10° 320° (NW) 2,515 6.2 -31.7°
Maximum altitude 18:32:13 38° 254° (WSW) 1,293 4.5 -32.7°
Enters shadow 18:34:34 27° 209° (SSW) 1,606 4.8 -33.1°
